This is the latest recevied weather packets stored in our database for station/object KB0BS-13. If no packets are shown the sender has not sent any weather packets the latest 10 day(s).
| Time | Temp. | Humidity | Pressure | Rain* | Wind** | Luminosity | Snow |
|---|---|---|---|---|---|---|---|
| 1777330359 | 14.44° C | 61% | 1009.1 hPa | 0 mm | - | 48 W/m² | - |
| 1777330057 | 14.44° C | 61% | 1009.1 hPa | 0 mm | - | 48 W/m² | - |
| 1777329756 | 15° C | 61% | 1009.6 hPa | 0 mm | - | 100 W/m² | - |
| 1777329454 | 15° C | 61% | 1009.6 hPa | 0 mm | - | 100 W/m² | - |
| 1777329151 | 15° C | 61% | 1009.6 hPa | 0 mm | - | 100 W/m² | - |
| 1777328013 | 15° C | 60% | 1009.8 hPa | 0 mm | - | 164 W/m² | - |
| 1777327711 | 15° C | 60% | 1009.8 hPa | 0 mm | - | 164 W/m² | - |
| 1777327408 | 15° C | 60% | 1010 hPa | 0 mm | - | 166 W/m² | - |
| 1777327106 | 15° C | 60% | 1010.4 hPa | 0 mm | - | 163 W/m² | - |
| 1777326801 | 15° C | 61% | 1010.6 hPa | 0 mm | - | 183 W/m² | - |
| 1777326499 | 15° C | 60% | 1010.5 hPa | 0 mm | - | 177 W/m² | - |
| 1777326197 | 15° C | 60% | 1010.7 hPa | 0 mm | - | 206 W/m² | - |
| 1777325895 | 15° C | 61% | 1011.1 hPa | 0 mm | - | 190 W/m² | - |
| 1777325593 | 15° C | 61% | 1011 hPa | 0 mm | - | 203 W/m² | - |
| 1777325290 | 15° C | 61% | 1011.5 hPa | 0 mm | - | 217 W/m² | - |
| 1777324988 | 15° C | 59% | 1011.6 hPa | 0 mm | - | 202 W/m² | - |
| 1777324684 | 15° C | 60% | 1011.3 hPa | 0 mm | - | 220 W/m² | - |
| 1777324382 | 15° C | 60% | 1011.3 hPa | 0 mm | - | 232 W/m² | - |
| 1777324079 | 15° C | 62% | 1011.6 hPa | 0 mm | - | 260 W/m² | - |
| 1777323776 | 15° C | 60% | 1011.9 hPa | 0 mm | - | 317 W/m² | - |
| 1777323473 | 15° C | 59% | 1012 hPa | 0 mm | - | 343 W/m² | - |
| 1777323171 | 15° C | 61% | 1012.2 hPa | 0 mm | - | 347 W/m² | - |
| 1777322868 | 15° C | 59% | 1012.2 hPa | 0 mm | - | 273 W/m² | - |
| 1777322567 | 15° C | 59% | 1012.2 hPa | 0 mm | - | 300 W/m² | - |
| 1777322263 | 15.56° C | 58% | 1012.5 hPa | 0 mm | - | 313 W/m² | - |
* Rain latest hour (hover to see other rain measurements)
** Current wind speed in m/s (hover to see current wind gust speed)